Showing default

HORACIO, 59098

Orbit data source: Space-Track

HORACIO, 59098 is a payload satellite owned by Satlantis (ES) in SSO that was launched on Mon, 04 Mar 2024 UTC via an FALCON 9 launch vehicle from the Air Force Western Test Range (AFWTR). Payloads include a variety of satellites, spacecraft, and rockets equipped with specific instruments for various scientific and technological missions. These include communications satellites like Starlink; space stations such as the ISS; scientific satellites like the Hubble; Earth observation satellites from companies like Planet Labs, Umbra, and HawkEye 360; GPS; miniature CubeSats for education and research; and military/defense satellites.

Loading next visibility...
HORACIO details
Identifier
59098, 2024-043A
Orbit
SSO
Last TLE update12 hours ago
Origin
Flag of ESSatlantis (ES / SPN)
ManufacturerNanoAvionics
MissionOperational Commercial Imaging
Bus & MotorCUBESAT 16U M16P, Unknown motor
Mass~20 kg wet, ~20 kg dry
Launch date (UTC)
2024-03-04 (11 months ago)
Launch vehicle
FALCON 9
Launch site
Air Force Western Test Range (AFWTR)
Object type
Payload
Rocket body
Debris
Shape & HBRBox, 0.4 m
Radar Cross Section0.100 m², Medium (>0.1 m² and < 1m²)

Expand to show TLE details & history

TLE from 12 hours ago
0 HORACIO
1 59098U 24043A   25023.14489764  .00006535  00000-0  60912-3 0  9999
2 59098  97.7867 150.0814 0010495 284.4736  75.5319 14.94540492 48351
Epoch: 2025-01-23T03:28Z
Definitive object data (Epoch: 2025-01-23T03:28:39.156Z)
Latitude-0.00005°
Longitude-24.80837°
Altitude585.025 km
Speed7.569 km/s
True Right ascension10h 00m 19s
True Declination0° 00' 00"
Sunlit
Object was in full shadow at TLE epoch
Visualization TLE readout
Latitude58.11776°
Longitude-36.96226°
Altitude598.853 km
Speed7.563 km/s
Apparent Right ascension06h 17m 03s
Apparent Declination14° 57' 02"
Sunlit
Object is in full shadow
Visualization observer readout
Local Sidereal Time16:11:35
Azimuth325.335° NNW
Elevation-27.851°
Doppler factor1
Orbital elements
Apogee altitude588.119 km
Perigee altitude573.512 km
Semi-major axis6,958.953 km
Eccentricity0.0010495
Inclination97.7867°
RAAN150.0814°
Arg. of periapsis284.4736°
True anomaly75.64839°
Mean anomaly75.5319°
Eccentric anomaly75.59014°
Mean motion3.73876 °/min
BSTAR0.00060912
Orbital period96.29 mins
Loading maneuver chart data...
Loading historical data...
Loading historical data...
Loading historical data...
Loading historical data...
Loading historical data...
Loading historical data...
Loading historical data...

HORACIO Visibility forecast

Observer location: undefined°, undefined

Span
Click to sort rows by Start time (UTC) header in descending order
Start Az.
Max El. time (UTC)
Max El. Az.
Max El.
End time (UTC)
End Az.
4 mins2025-01-23 20:08:16.100Z56.736° ENE2025-01-23 20:10:16.100Z86.428° E15.028°2025-01-23 20:12:16.100Z119.289° SE
5 mins2025-01-23 21:44:16.100Z339.631° N2025-01-23 21:46:16.100Z283.91° WNW32.247°2025-01-23 21:49:16.100Z223.604° SW
6 mins2025-01-24 08:32:16.100Z181.082° SSW2025-01-24 08:34:16.100Z221.266° SW41.253°2025-01-24 08:38:16.100Z340.69° N
|